Find Kosmos-1066

NORAD ID: 11165 Int'l Des: 1978-121 Owner: MOM/VNIEM Country: SU operational
LEOCIRCULARPOLAR

实时位置

正在加载3D地球...

关于 Kosmos-1066

正在加载描述...

即将过境

Passes for default location (London). Set your location on the main map for personalized predictions.

高度历史

Loading altitude history...

两行轨道根数

1 11165U 78121A 26106.03847376 .00000151 00000-0 74901-4 0 9998
2 11165 81.2365 316.5075 0048278 272.6575 86.9072 14.12095736952557
Epoch: Apr 16, 2026 • Age: 16 hours

当前状态

高度 844.8 km
速度 7.44 km/s
星下点 -47.48°S, 40.97°E
发射日期 Dec 23, 1978
运行时间 47.3 years
类型 other

技术详情

分类 Payload
质量 1200.00 kg
干质量 1200.00 kg
总质量 1200.00 kg
长度 4.50 m
直径 1.40 m
跨度 4.50 m
形状 Cyl + 2 Pan
制造商 VNIEM
平台类型 Astrofizika
阶段状态 In Orbit
所有者/国家 MOM/VNIEM/SU

Most Searched